Back to catalog

SL-8 R/B

AlivePO
NORAD 16511·ROCKET BODY·🇷🇺 Russia

Launched Jan 23, 1986 from Plesetsk Cosmodrome

Loading…

Next Passes (next 24 hours)

TLE

FreshSource: Space-Track

Epoch: Sep 14, 2026, 10:30 UTC

1 16511U 86008B   26257.43774850 -.00000047  00000-0 -64287-4 0  9990
2 16511  82.9408 235.7473 0023413 207.3958 308.6741 13.75997572 40261

Track SL-8 R/B in real time with AllMySat

Download on the App Store